Regional Weather Roundup
Issued by NWS Charleston, SC

Current Version | Previous Version | Graphics & Text | Print | Product List | Glossary On
Versions: 1 2 3 4 5 6 7 8 9 10 11 12 13 14 15 16 17 18 19 20 21 22 23 24 25 26 27 28 29 30 31 32 33 34 35 36 37 38 39 40 41 42 43 44 45 46 47 48 49 50
000
ASUS42 KCHS 010011
RWRCHS

REGIONAL WEATHER ROUNDUP
NATIONAL WEATHER SERVICE CHARLESTON SC
700 PM EST SAT FEB 28 2015

NOTE: "FAIR" INDICATES FEW OR NO CLOUDS BELOW 12,000 FEET WITH NO
SIGNIFICANT WEATHER AND/OR OBSTRUCTIONS TO VISIBILITY.

NOT ALL STATIONS ARE QUALITY CONTROLLED BY THE NATIONAL
WEATHER SERVICE. USE DATA WITH CAUTION...ESPECIALLY
DEWPOINT OBSERVATIONS.

SCZ027-030-031-034>040-042>050-010100-
...SOUTHEAST SOUTH CAROLINA...

CITY           SKY/WX    TMP DP  RH WIND       PRES   REMARKS
N CHARLESTON   LGT RAIN  47  36  65 E6        30.57S
6HR MIN TEMP:  47; 6HR MAX TEMP:  53; 6HR PCP: TRACE;

WATERFRONT PRK   N/A     46 N/A N/A NE10        N/A
MOUNT PLEASANT DRIZZLE   46  34  61 NE3       30.59R
PINOPOLIS        N/A     50  36  57 NE9       30.51R
MONCKS CORNER  LGT RAIN  50  32  50 E8        30.58R
SUMMERVILLE    CLOUDY    46  36  66 NE5       30.58S
BEAUFORT MCAS  NOT AVBL
BEAUFORT ARPT  DRIZZLE   45  39  81 NE15      30.54F
HILTON HEAD IS CLOUDY    45  36  70 N12G17    30.56R
WALTERBORO     DRIZZLE   46  39  76 NE3       30.58R
ALLENDALE      CLOUDY    46  39  76 CALM      30.56S

...SOUTHERN MIDLANDS AND PEE DEE...

CITY           SKY/WX    TMP DP  RH WIND       PRES   REMARKS
GEORGETOWN     NOT AVBL
KINGSTREE      NOT AVBL
ORANGEBURG     CLOUDY    48  28  46 NE7       30.58R
6HR MIN TEMP:  48; 6HR MAX TEMP:  55; 6HR PCP: TRACE;

BARNWELL       CLOUDY    48  32  53 NE9       30.57F
AIKEN          CLOUDY    46  30  53 NE8       30.61R
MANNING        CLOUDY    48  28  46 NE3       30.59S
COLUMBIA       CLOUDY    49  26  41 NE10      30.60R
6HR MIN TEMP:  48; 6HR MAX TEMP:  52;

SUMTER         MOCLDY    46  26  45 NE8       30.59S
6HR MIN TEMP:  46; 6HR MAX TEMP:  52;

FLORENCE       PTCLDY    43  25  49 NE9       30.63R
6HR MIN TEMP:  43; 6HR MAX TEMP:  50;

MYRTLE BEACH   CLOUDY    46  23  39 NE8       30.63S
N MYRTLE BEACH CLOUDY    45  24  43 NE13      30.61R
6HR MIN TEMP:  45; 6HR MAX TEMP:  52;


$$

GAZ063-065-086>088-099>101-113>116-118-119-134>141-150-010100-
...SOUTHEAST GEORGIA...

CITY           SKY/WX    TMP DP  RH WIND       PRES   REMARKS
SAVANNAH ARPT  LGT RAIN  43  38  82 NE12      30.53F
6HR MIN TEMP:  43; 6HR MAX TEMP:  48; 6HR PCP:  0.03;

HUNTER AAF     CLOUDY    45  36  69 NE8       30.50S
6HR MIN TEMP:  45; 6HR MAX TEMP:  46; 6HR PCP:  0.02;

FORT STEWART   CLOUDY    43  38  83 NE8       30.50S
6HR MIN TEMP:  43; 6HR MAX TEMP:  47; 6HR PCP:  0.03;

STATESBORO     DRIZZLE   43  43 100 E5        30.55S
SYLVANIA       RAIN      45  43  93 E7        30.55F
CLAXTON        DRIZZLE   43  41  93 NE7       30.54S

...CSRA...CENTRAL AND FAR SOUTHEAST GEORGIA...

CITY           SKY/WX    TMP DP  RH WIND       PRES   REMARKS
THOMSON        CLOUDY    50  35  55 NE10      30.60S
AUGUSTA-BUSH   CLOUDY    50  29  44 E10       30.57R
6HR MIN TEMP:  50; 6HR MAX TEMP:  55; 6HR PCP: TRACE;

AUGUSTA-DANIEL LGT RAIN  49  32  52 NE9       30.57R
SWAINSBORO     DRIZZLE   45  43  93 E8        30.54F
VIDALIA        RAIN      43  43 100 NE9       30.53S
EASTMAN        RAIN      43  43 100 E7        30.56R
HAZLEHURST     LGT RAIN  44  44 100 NE12G18   30.51S
ALMA           CLOUDY    43  41  93 VRB5      30.50R FOG
6HR MIN TEMP:  43; 6HR MAX TEMP:  45; 6HR PCP:  0.28;

WAYCROSS       CLOUDY    46  46  97 E12       30.49R FOG
JESUP          CLOUDY    45  45 100 NE7       30.50S
BAXLEY         RAIN      45  43  93 NE12G18   30.51R
BRUNSWICK      CLOUDY    45  41  87 NE13G21   30.50S
SAINT SIMONS   CLOUDY    46  42  86 NE20G29   30.48S
6HR MIN TEMP:  45; 6HR MAX TEMP:  47;


$$

SCZ027-028-034-036>038-045-046-048>050-GAZ119-141-010100-
...LAKE AND SUPPLEMENTAL COASTAL OBSERVATIONS...

STATION/POSITION TIME  TEMP    WIND        PRES    WAVE   SWELL
                       AIR SEA DIR/SP/G            HT/PER HT/PER/DIR
                 (UTC) (F)     (DEG/KT/KT) (MB)    (FT/S) (FT/S/D)
UPR LAKE MARION  NOT AVBL
WINYAH BAY       NOT AVBL
LAKE MURRAY      2300   47      30/  5/  8 1034.9S
ACE BASIN NERRS  NOT AVBL
FORT PULASKI     2306           30/ 16/ 20   N/A
SAPELO ISLAND    2300   44      30/ 17     1032.0S

$$

ANZ835-935-AMZ111-154-330-350-352-354-370-450-454-472-010100-
...C-MAN AND BUOY OBSERVATIONS...

STATION/POSITION TIME  TEMP    WIND        PRES    WAVE   SWELL
                       AIR SEA DIR/SP/G            HT/PER HT/PER/DIR
                 (UTC) (F)     (DEG/KT/KT) (MB)    (FT/S) (FT/S/D)
BUOY 41004       2350   54 68   40/ 27/ 33 1033.2R  10/ 8   5/ 9
BUOY 41008       2350   50 52   40/ 25/ 31 1031.2R   8/ 8
FOLLY BEACH CMAN 0000   46      40/ 19/ 22 1035.5R
CAPERS NEARSHORE NOT AVBL
FRIPP NEARSHORE  2300   48      50/ 25/ 29 1032.0F


STATION/POSITION TIME  TEMP    WIND        PRES    WAVE   SWELL
                       AIR SEA DIR/SP/G            HT/PER HT/PER/DIR
                 (UTC) (F)     (DEG/KT/KT) (MB)    (FT/S) (FT/S/D)
5E ST. MARYS GA  2321      52                N/A     8/ 6   2/ 80/11
FRYING PAN BUOY  2350   48 62   50/ 25/ 31 1035.7R  10/ 8
BUOY 41025       NOT AVBL
CAPE LOOKOUT NC  2300   37      20/ 17/ 21 1038.4R
BUOY 41002       2350   65 69   60/ 25/ 29 1032.9R  10/ 8
BUOY 41010       2320   71 72   80/ 21/ 27 1027.3R
ST AUGUSTINE FL  0000   54     340/ 16/ 19 1029.6R


$$


USA.gov is the U.S. government's official web portal to all federal, state and local government web resources and services.